This is the latest recevied weather packets stored in our database for station/object AA8FM-13. If no packets are shown the sender has not sent any weather packets the latest 10 day(s).
| Time | Temp. | Humidity | Pressure | Rain* | Wind** | Luminosity | Snow |
|---|---|---|---|---|---|---|---|
| 1777339814 | 20° C | 50% | 1013.8 hPa | 0 mm | - | 0 W/m² | - |
| 1777339512 | 20° C | 49% | 1013.7 hPa | 0 mm | - | 0 W/m² | - |
| 1777339209 | 20° C | 51% | 1013.7 hPa | 0 mm | - | 0 W/m² | - |
| 1777338907 | 20° C | 50% | 1013.6 hPa | 0 mm | - | 0 W/m² | - |
| 1777338598 | 20° C | 47% | 1013.9 hPa | 0 mm | - | 0 W/m² | - |
| 1777338296 | 20.56° C | 47% | 1013.7 hPa | 0 mm | - | 0 W/m² | - |
| 1777337991 | 20.56° C | 49% | 1013.6 hPa | 0 mm | - | 0 W/m² | - |
| 1777337687 | 20.56° C | 47% | 1013.6 hPa | 0 mm | - | 0 W/m² | - |
| 1777337386 | 20.56° C | 46% | 1013.5 hPa | 0 mm | - | 0 W/m² | - |
| 1777337083 | 20.56° C | 46% | 1013.4 hPa | 0 mm | - | 0 W/m² | - |
| 1777336781 | 21.11° C | 47% | 1013.6 hPa | 0 mm | - | 0 W/m² | - |
| 1777336479 | 20.56° C | 47% | 1013.6 hPa | 0 mm | - | 0 W/m² | - |
| 1777336176 | 20.56° C | 46% | 1013.5 hPa | 0 mm | - | 0 W/m² | - |
| 1777335873 | 21.11° C | 47% | 1013.4 hPa | 0 mm | - | 0 W/m² | - |
| 1777335570 | 21.11° C | 47% | 1013.4 hPa | 0 mm | - | 0 W/m² | - |
| 1777335267 | 21.11° C | 46% | 1013.6 hPa | 0 mm | - | 1 W/m² | - |
| 1777334965 | 21.11° C | 46% | 1013.5 hPa | 0 mm | - | 1 W/m² | - |
| 1777334662 | 21.11° C | 48% | 1013.4 hPa | 0 mm | - | 2 W/m² | - |
| 1777334360 | 21.11° C | 51% | 1013.4 hPa | 0 mm | - | 3 W/m² | - |
| 1777334055 | 21.67° C | 47% | 1013.5 hPa | 0 mm | - | 4 W/m² | - |
| 1777333751 | 21.67° C | 45% | 1013.4 hPa | 0 mm | - | 6 W/m² | - |
| 1777333447 | 20.56° C | 54% | 1013.3 hPa | 0 mm | - | 8 W/m² | - |
| 1777333145 | 21.11° C | 51% | 1013.3 hPa | 0 mm | - | 11 W/m² | - |
| 1777332842 | 21.67° C | 57% | 1013.4 hPa | 0 mm | - | 14 W/m² | - |
| 1777332540 | 21.67° C | 51% | 1013.5 hPa | 0 mm | - | 17 W/m² | - |
* Rain latest hour (hover to see other rain measurements)
** Current wind speed in m/s (hover to see current wind gust speed)